Regional Weather Roundup
Issued by NWS Northern Indiana

Home | Current Version | Previous Version | Text Only | Print | Product List | Glossary On
Versions: 1 2 3 4 5 6 7 8 9 10 11 12 13 14 15 16 17 18 19 20 21 22 23 24 25 26 27 28 29 30 31 32 33 34 35 36 37 38 39 40 41 42 43 44 45 46 47 48 49 50
000
ASUS43 KIWX 221110
RWRIWX

KIWX WEATHER ROUNDUP
NATIONAL WEATHER SERVICE NORTHERN INDIANA
600 AM EST MON DEC 22 2014

NOTE: "FAIR" INDICATES FEW OR NO CLOUDS BELOW 12,000 FEET WITH NO
SIGNIFICANT WEATHER AND/OR OBSTRUCTIONS TO VISIBILITY.

* THESE STATIONS ARE NOT UNDER NWS QUALITY CONTROL. THEY ALSO MAY NOT
  REPORT WEATHER SUCH AS PRECIPITATION OR FOG.

INZ001>027-221200-
NORTHERN INDIANA

CITY           SKY/WX    TMP DP  RH WIND       PRES   REMARKS
GARY*          CLOUDY    32  25  74 SE9       29.98F HAZE    WCI  24
VALPARAISO     MOCLDY    28  25  88 E6        29.98F FOG     WCI  22
MICHIGAN CITY* MOCLDY    30  23  74 SE6       30.00S WCI  24
LAPORTE*       MOCLDY    29  28  93 E6        30.00S FOG     WCI  23
KNOX*          MOCLDY    29  24  79 SE8       29.99S WCI  21
SOUTH BEND     MOCLDY    28  24  85 E7        30.01F WCI  21
GOSHEN         MOCLDY    28  24  85 SE9       30.01F FOG     WCI  19
MONTICELLO*    CLOUDY    30  27  89 E5        29.98F WCI  25
LOGANSPORT*    CLOUDY    28  27  93 E9        30.00F FOG     WCI  20
ROCHESTER*     MOCLDY    32  28  86 E7        30.01S FOG     WCI  26
WARSAW*        CLOUDY    28  27  93 E5        30.01F FOG     WCI  23
ANGOLA*        CLEAR     25  21  86 SE7       30.03F WCI  17
FORT WAYNE     MOCLDY    26  23  88 E7        30.03F FOG     WCI  18
HUNTINGTON*    MOCLDY    26  24  92 CALM      30.02S
PERU/GRISSOM   MOCLDY    28  28 100 E8        29.99F WCI  20
MARION*        PTCLDY    28  24  87 SE8       30.00F WCI  19

$$
INZ028>050-221200-
CENTRAL INDIANA

CITY           SKY/WX    TMP DP  RH WIND       PRES   REMARKS
LAFAYETTE      CLOUDY    30  27  88 E7        29.98F WCI  23
KOKOMO*        MOCLDY    28  25  86 SE8       29.99F WCI  20
MUNCIE*        CLOUDY    30  26  85 SE7       30.00F WCI  23
INDIANAPOLIS   CLOUDY    30  26  85 E6        29.96F WCI  24

$$
MIZ043>046-050>051-056>058-064>065-071>073-077>080-221200-
SOUTHWEST LOWER MICHIGAN

CITY           SKY/WX    TMP DP  RH WIND       PRES   REMARKS
BATTLE CREEK   MOCLDY    28  22  78 E8        30.04F WCI  20
BENTON HARBOR  MOCLDY    28  24  85 SE10      30.00F FOG     WCI  19
COLDWATER*     FAIR      26  23  87 SE6       30.03F FOG     WCI  20
HILLSDALE*     CLEAR     25  23  93 SE7       30.04F FOG     WCI  17
HOLLAND        MOCLDY    30  23  75 SE12      30.02F WCI  20
GRAND RAPIDS   MOCLDY    26  22  84 SE6       30.05S FOG     WCI  19
KALAMAZOO      PTCLDY    28  22  78 SE6       30.04R WCI  22
STURGIS*       PTCLDY    27  23  86 SE6       30.02S FOG     WCI  20
THREE RIVERS*  FAIR      27  23  86 E5        30.04S FOG     WCI  21

$$
OHZ001>008-015>018-024>025-221200-
NORTHWEST OHIO

CITY           SKY/WX    TMP DP  RH WIND       PRES   REMARKS
WAUSEON*       FAIR      21  19  93 E7        30.07F FOG     WCI  13
DEFIANCE       CLEAR     25  21  85 E6        30.07F FOG     WCI  18
FINDLAY        CLEAR     25  20  81 E7        30.05F HAZE    WCI  17
TOLEDO EXPRESS CLEAR     23  20  88 E3        30.09F FOG
TOLEDO METCALF PTCLDY    26  20  77 E5        30.10F WCI  20
LIMA           CLEAR     28  22  78 SE8       30.03F HAZE    WCI  20

$$
AND FOR LAKE MICHIGAN COASTAL AND OPEN LAKE BUOY OBSERVATIONS

STATION/POSITION TEMP    WIND        PRES    VSBY  WAVE
                 AIR SEA DIR/SP/G                  HT/PER
                 (F)     (DEG/KT/KT) (MB)    (MI)  (FT/S)
CALUMET HARBOR    31     160/  7/ 10 1013.7S
SAINT JOSEPH      29     170/  1/  8 1015.9F

$$
&&


USA.gov is the U.S. government's official web portal to all federal, state and local government web resources and services.